Regional Weather Roundup
Issued by NWS

Home | Current Version | Previous Version | Text Only | Print | Product List | Glossary Off
Versions: 1 2 3 4 5 6 7 8 9 10 11 12 13 14 15 16 17 18 19 20 21 22 23 24 25 26 27 28 29 30 31 32 33 34 35 36 37 38 39 40 41 42 43 44 45 46 47 48 49 50

606
ASUS44 KJAN 280010
RWRMS

MISSISSIPPI HOURLY WEATHER ROUNDUP
NATIONAL WEATHER SERVICE JACKSON MS
700 PM CDT SUN JUL 27 2014

NOTE: "FAIR: INDICATES FEW OR NO CLOUDS BELOW 12,000 FEET WITH NO
SIGNIFICANT WEATHER AND/OR OBSTRUCTIONS TO VISIBILITY.

MSZ001>002-007>008-010>013-018>021-025>028-034>036-280100-
NORTHWEST MISSISSIPPI

CITY           SKY/WX    TMP DP  RH WIND       PRES   REMARKS
CLARKSDALE     FAIR      90  81  74 CALM      29.96R HX 108
CLEVELAND      FAIR      89  81  77 SW6       29.95F HX 108
GREENWOOD      PTSUNNY   87  77  72 SW7       29.96S HX  99
6HR MIN TEMP:  87; 6HR MAX TEMP:  92;

GREENVILLE     PTSUNNY   91  75  59 SW9       29.96S HX 101
6HR MIN TEMP:  91; 6HR MAX TEMP:  95;

GRENADA        FAIR      88  77  70 W3        29.96R HX 100
OLIVE BRANCH   PTSUNNY   88  82  84 W12       29.94S HX 108
OXFORD         FAIR      86  75  70 W7        29.97S HX  95
TUNICA         MOCLDY    90  77  66 SW7       29.95S HX 102
$$

MSZ003>006-009-014>017-022>024-029>033-037>039-280100-
NORTHEAST MISSISSIPPI

CITY           SKY/WX    TMP DP  RH WIND       PRES   REMARKS
BELMONT        FAIR      85  77  77 SW6       29.95S HX  96
COLUMBUS AFB   PTSUNNY   88  74  63 W8        29.95F HX  97
6HR MIN TEMP:  88; 6HR MAX TEMP:  93;

CORINTH        FAIR      86  75  70 W7        29.93R HX  95
GOLDN TRIANGLE MOSUNNY   90  73  58 W5        29.97S HX  98
STARKVILLE     FAIR      86  75  70 SW5       29.96F HX  95
TUPELO         PTSUNNY   87  76  69 W8        29.94F HX  97
6HR MIN TEMP:  87; 6HR MAX TEMP:  92;

$$

MSZ040-058-280100-
CENTRAL MISSISSIPPI

CITY           SKY/WX    TMP DP  RH WIND       PRES   REMARKS
JACKSON INTL   MOSUNNY   90  74  59 W6        30.01R HX  99
6HR MIN TEMP:  90; 6HR MAX TEMP:  94;

JACKSON HAWKNS MOSUNNY   90  72  55 W9        30.02R HX  97
6HR MIN TEMP:  90; 6HR MAX TEMP:  93;

MERIDIAN KEY   PTSUNNY   89  74  60 W6        29.99S HX  98
6HR MIN TEMP:  89; 6HR MAX TEMP:  94;

MERIDIAN NAS   PTSUNNY   91  70  49 W7        29.98S HX  96
6HR MIN TEMP:  89; 6HR MAX TEMP:  95;

RAYMOND        FAIR      90  84  84 SW5       30.01S HX 115
VICKSBURG      MOSUNNY   90  74  59 SW3       30.00R HX  99
6HR MIN TEMP:  90; 6HR MAX TEMP:  94;

$$

MSZ059>079-280100-
SOUTH MISSISSIPPI

CITY           SKY/WX    TMP DP  RH WIND       PRES   REMARKS
BROOKHAVEN     FAIR      90  75  62 SW6       30.04S HX 100
COLUMBIA       FAIR      88  77  70 W5        30.00S HX 100
HATTIESBURG    MOSUNNY   91  74  57 W7        30.00S HX 100
6HR MIN TEMP:  91; 6HR MAX TEMP:  95;

MCCOMB         SUNNY     88  74  63 W6        30.02F HX  96
6HR MIN TEMP:  88; 6HR MAX TEMP:  92;

NATCHEZ        SUNNY     90  75  62 SW3       30.02S HX 100
6HR MIN TEMP:  90; 6HR MAX TEMP:  93;

PINE BELT      MOSUNNY   90  73  58 W3        30.03S HX  98
6HR MIN TEMP:  90; 6HR MAX TEMP:  93;

$$

MSZ080>082-280100-
COASTAL MISSISSIPPI

CITY           SKY/WX    TMP DP  RH WIND       PRES   REMARKS
BAY ST LOUIS   MOSUNNY  N/A N/A N/A SW3       30.01S
BILOXI         CLEAR     86  78  77 SW14      30.01R HX  99
6HR MIN TEMP:  86; 6HR MAX TEMP:  91;

PASCAGOULA     CLEAR     86  77  74 SW12      30.01S HX  97
6HR MIN TEMP:  86; 6HR MAX TEMP:  93;

GULFPORT       SUNNY     92  75  57 SW8       30.00S HX 103
6HR MIN TEMP:  92; 6HR MAX TEMP:  97;

$$



USA.gov is the U.S. government's official web portal to all federal, state and local government web resources and services.